{"data":{"norad_id":68843,"epoch":"2026-05-24T23:41:38.831136Z","epoch_age_seconds":73187,"freshness":"FRESH","line1":"1 68843U 26094E   26144.98725499  .00315910  00000+0  20309-2 0  9994","line2":"2 68843  97.2845 159.9228 0000732  83.4147 276.7202 15.75309395  4503","mean_motion":15.75309395,"eccentricity":7.32e-5,"inclination_deg":97.2845,"raan_deg":159.9228,"arg_perigee_deg":83.4147,"mean_anomaly_deg":276.7202,"bstar":0.0020309,"rev_number":450,"period_min":91.41061461136,"perigee_km":343.25886390284,"apogee_km":344.24294829229,"semimajor_km":6721.8879060976,"source":"CELESTRAK","updated_at":"2026-05-25T13:38:22.046353Z"}}